When you browse on this site, cookies collect data to enhance your experience and personalize the content and advertising you see.
Visit our Privacy Policy to learn more. By continuing to use the site, you agree to this use of cookies and data.
  • In Netherlands
  • List of Countries
  • For 7 days
  • Water Temperature
  • Weather Map
  • Weather Widgets
  • user-avatar
    Login

    Hourly Weather Dzilebki

    Today, 25 January, Saturday

    Time Temperature Precipitation Wind Pressure Humidity
    00:00 -16°C° 0 mm 2 mps 622 mmHg 60%
    01:00 -16°C° 0 mm 2 mps 622 mmHg 56%
    02:00 -15°C° 0 mm 2 mps 622 mmHg 52%
    03:00 -15°C° 0 mm 2 mps 622 mmHg 48%
    04:00 -15°C° 0 mm 2 mps 622 mmHg 45%
    05:00 -14°C° 0 mm 2 mps 623 mmHg 42%
    06:00 -14°C° 0 mm 2 mps 623 mmHg 39%
    07:00 -12°C° 0 mm 2 mps 623 mmHg 43%
    08:00 -10°C° 0 mm 2 mps 624 mmHg 47%
    09:00 -7°C° 0 mm 1 mps 624 mmHg 50%
    10:00 -6°C° 0 mm 1 mps 624 mmHg 50%
    11:00 -4°C° 0 mm 1 mps 625 mmHg 50%
    12:00 -2°C° 0 mm 1 mps 625 mmHg 50%
    13:00 -2°C° 0 mm 1 mps 624 mmHg 56%
    14:00 -3°C° 0 mm 0 mps 624 mmHg 62%
    15:00 -2°C° 0 mm 0 mps 623 mmHg 68%
    16:00 -3°C° 0 mm 1 mps 623 mmHg 63%
    17:00 -4°C° 0 mm 1 mps 622 mmHg 59%
    18:00 -6°C° 0 mm 1 mps 622 mmHg 54%
    19:00 -6°C° 0 mm 1 mps 622 mmHg 52%
    20:00 -6°C° 0 mm 2 mps 622 mmHg 50%
    21:00 -6°C° 0 mm 2 mps 621 mmHg 48%
    22:00 -6°C° 0 mm 2 mps 621 mmHg 47%
    23:00 -6°C° 0 mm 2 mps 621 mmHg 47%

    Tomorrow, 26 January, Sunday

    Time Temperature Precipitation Wind Pressure Humidity
    00:00 -6°C° 0 mm 2 mps 621 mmHg 46%
    01:00 -6°C° 0 mm 2 mps 621 mmHg 46%
    02:00 -6°C° 0 mm 2 mps 621 mmHg 46%
    03:00 -6°C° 0 mm 2 mps 620 mmHg 45%
    04:00 -6°C° 0 mm 2 mps 620 mmHg 45%
    05:00 -6°C° 0 mm 2 mps 620 mmHg 45%
    06:00 -6°C° 0 mm 2 mps 620 mmHg 45%
    07:00 -3°C° 0 mm 1 mps 620 mmHg 49%
    08:00 -2°C° 0 mm 1 mps 621 mmHg 52%
    09:00 -1°C° 0 mm 1 mps 622 mmHg 56%
    10:00 -1°C° 0 mm 1 mps 622 mmHg 59%
    11:00 0°C° 0 mm 1 mps 622 mmHg 63%
    12:00 +1°C° 0 mm 1 mps 622 mmHg 66%
    13:00 0°C° 0 mm 1 mps 622 mmHg 72%
    14:00 0°C° 0 mm 1 mps 622 mmHg 77%
    15:00 -1°C° 0 mm 1 mps 622 mmHg 83%
    16:00 -2°C° 0 mm 1 mps 622 mmHg 81%
    17:00 -3°C° 0 mm 1 mps 622 mmHg 80%
    18:00 -6°C° 0 mm 1 mps 622 mmHg 78%
    19:00 -6°C° 0 mm 1 mps 622 mmHg 77%
    20:00 -6°C° 0 mm 1 mps 623 mmHg 75%
    21:00 -4°C° 0 mm 1 mps 623 mmHg 74%
    22:00 -6°C° 0 mm 1 mps 623 mmHg 74%
    23:00 -7°C° 0 mm 1 mps 623 mmHg 74%

    Day after tomorrow, 27 January, Monday

    Time Temperature Precipitation Wind Pressure Humidity
    00:00 -7°C° 0 mm 1 mps 623 mmHg 74%
    01:00 -7°C° 0 mm 1 mps 623 mmHg 72%
    02:00 -7°C° 0 mm 1 mps 623 mmHg 71%
    03:00 -8°C° 0 mm 1 mps 624 mmHg 70%
    04:00 -8°C° 0 mm 1 mps 624 mmHg 69%
    05:00 -8°C° 0 mm 1 mps 624 mmHg 68%
    06:00 -8°C° 0 mm 1 mps 624 mmHg 67%
    07:00 -6°C° 0 mm 1 mps 625 mmHg 67%
    08:00 -4°C° 0 mm 1 mps 626 mmHg 67%
    09:00 -3°C° 0 mm 1 mps 627 mmHg 67%
    10:00 -2°C° 0 mm 1 mps 627 mmHg 68%
    11:00 -1°C° 0 mm 1 mps 627 mmHg 69%
    12:00 0°C° 0 mm 1 mps 627 mmHg 70%
    13:00 0°C° 0 mm 1 mps 627 mmHg 74%
    14:00 -1°C° 0 mm 0 mps 627 mmHg 79%
    15:00 -1°C° 0 mm 0 mps 626 mmHg 83%
    16:00 -1°C° 0 mm 1 mps 626 mmHg 78%
    17:00 -2°C° 0 mm 1 mps 625 mmHg 74%
    18:00 -3°C° 0 mm 1 mps 625 mmHg 69%
    19:00 -3°C° 0 mm 1 mps 625 mmHg 64%
    20:00 -5°C° 0 mm 2 mps 625 mmHg 59%
    21:00 -5°C° 0 mm 2 mps 625 mmHg 55%
    22:00 -5°C° 0 mm 2 mps 624 mmHg 52%
    23:00 -5°C° 0 mm 2 mps 624 mmHg 50%

    28 January, Tuesday

    Time Temperature Precipitation Wind Pressure Humidity
    00:00 -5°C° 0 mm 2 mps 624 mmHg 48%
    01:00 -5°C° 0 mm 2 mps 624 mmHg 47%
    02:00 -5°C° 0 mm 2 mps 623 mmHg 47%
    03:00 -5°C° 0 mm 2 mps 623 mmHg 46%
    04:00 -5°C° 0 mm 2 mps 623 mmHg 46%
    05:00 -5°C° 0 mm 2 mps 623 mmHg 45%
    06:00 -5°C° 0 mm 2 mps 623 mmHg 45%
    07:00 -4°C° 0 mm 2 mps 623 mmHg 47%
    08:00 -3°C° 0 mm 2 mps 623 mmHg 50%
    09:00 0°C° 0 mm 1 mps 624 mmHg 52%
    10:00 +1°C° 0 mm 1 mps 624 mmHg 58%
    11:00 +2°C° 0 mm 1 mps 624 mmHg 64%
    12:00 +3°C° 0 mm 1 mps 624 mmHg 70%
    13:00 +3°C° 0 mm 1 mps 623 mmHg 68%
    14:00 +3°C° 0 mm 1 mps 623 mmHg 67%
    15:00 +3°C° 0 mm 1 mps 622 mmHg 66%
    16:00 +2°C° 0 mm 1 mps 622 mmHg 62%
    17:00 -1°C° 0 mm 2 mps 621 mmHg 58%
    18:00 -3°C° 0 mm 2 mps 620 mmHg 54%
    19:00 -3°C° 0 mm 2 mps 620 mmHg 52%
    20:00 -3°C° 0 mm 2 mps 620 mmHg 51%
    21:00 -3°C° 0 mm 2 mps 620 mmHg 49%
    22:00 -3°C° 0 mm 2 mps 620 mmHg 48%
    23:00 -3°C° 0 mm 2 mps 619 mmHg 46%

    29 January, Wednesday

    Time Temperature Precipitation Wind Pressure Humidity
    00:00 -3°C° 0 mm 2 mps 619 mmHg 45%
    01:00 -3°C° 0 mm 2 mps 619 mmHg 46%
    02:00 -3°C° 0 mm 2 mps 619 mmHg 47%
    03:00 -3°C° 0 mm 2 mps 618 mmHg 48%
    04:00 -3°C° 0 mm 2 mps 618 mmHg 49%
    05:00 -3°C° 0 mm 2 mps 618 mmHg 51%
    06:00 -2°C° 0 mm 2 mps 618 mmHg 53%
    07:00 -2°C° 0 mm 2 mps 619 mmHg 55%
    08:00 -2°C° 0 mm 2 mps 619 mmHg 57%
    09:00 +1°C° 0 mm 1 mps 619 mmHg 59%
    10:00 +1°C° 0 mm 1 mps 620 mmHg 64%
    11:00 +2°C° 0 mm 1 mps 620 mmHg 69%
    12:00 +3°C° 0 mm 1 mps 620 mmHg 74%
    13:00 +3°C° 0 mm 1 mps 620 mmHg 75%
    14:00 +2°C° 0 mm 1 mps 619 mmHg 76%
    15:00 +2°C° 0 mm 1 mps 619 mmHg 78%
    16:00 +1°C° 0 mm 1 mps 619 mmHg 76%
    17:00 0°C° 0 mm 1 mps 619 mmHg 74%
    18:00 -1°C° 0 mm 1 mps 619 mmHg 73%
    19:00 -1°C° 0 mm 1 mps 619 mmHg 70%
    20:00 -1°C° 0 mm 1 mps 619 mmHg 68%
    21:00 -1°C° 0 mm 1 mps 620 mmHg 65%
    22:00 -3°C° 0 mm 2 mps 619 mmHg 64%
    23:00 -4°C° 0 mm 2 mps 619 mmHg 64%

    30 January, Thursday

    Time Temperature Precipitation Wind Pressure Humidity
    00:00 -4°C° 0 mm 2 mps 619 mmHg 63%
    01:00 -4°C° 0 mm 2 mps 619 mmHg 63%
    02:00 -4°C° 0 mm 2 mps 619 mmHg 63%
    03:00 -4°C° 0 mm 2 mps 619 mmHg 62%
    04:00 -4°C° 0 mm 2 mps 619 mmHg 63%
    05:00 -5°C° 0 mm 2 mps 619 mmHg 63%
    06:00 -5°C° 0 mm 2 mps 619 mmHg 64%
    07:00 -4°C° 0 mm 2 mps 619 mmHg 64%
    08:00 -3°C° 0 mm 2 mps 620 mmHg 65%
    09:00 0°C° 0 mm 1 mps 620 mmHg 66%
    10:00 +1°C° 0 mm 1 mps 621 mmHg 66%
    11:00 +2°C° 0 mm 1 mps 621 mmHg 67%
    12:00 +3°C° 0 mm 1 mps 621 mmHg 67%
    13:00 +3°C° 0 mm 1 mps 621 mmHg 69%
    14:00 +3°C° 0 mm 1 mps 621 mmHg 71%
    15:00 +3°C° 0 mm 1 mps 620 mmHg 74%
    16:00 +2°C° 0 mm 1 mps 620 mmHg 72%
    17:00 -2°C° 0 mm 2 mps 620 mmHg 71%
    18:00 -3°C° 0 mm 2 mps 619 mmHg 69%
    19:00 -3°C° 0 mm 2 mps 619 mmHg 67%
    20:00 -3°C° 0 mm 2 mps 619 mmHg 64%
    21:00 -3°C° 0 mm 2 mps 619 mmHg 62%
    22:00 -4°C° 0 mm 3 mps 618 mmHg 61%
    23:00 -4°C° 0 mm 3 mps 618 mmHg 60%
    Show more